Terminal Aerodrome Forecast
Issued by NWS San Angelo, TX

Home | Current Version | Previous Version | Text Only | Print | Product List | Glossary On
Versions: 1 2 3 4 5 6 7 8 9 10 11 12 13 14 15 16 17 18
000
FTUS44 KSJT 010520
TAFABI
TAF
KABI 010520Z 0106/0206 09011KT P6SM SKC
     FM011100 03014G20KT P6SM SCT015 BKN035
     FM011800 04012KT P6SM BKN035
     FM020000 04015G22KT P6SM VCSH BKN040=

USA.gov is the U.S. government's official web portal to all federal, state and local government web resources and services.